Regional Weather Roundup
Issued by NWS

Home | Current Version | Previous Version | Text Only | Print | Product List | Glossary Off
Versions: 1 2 3 4 5 6 7 8 9 10 11 12 13 14 15 16 17 18 19 20 21 22 23 24 25 26 27 28 29 30 31 32 33 34 35 36 37 38 39 40 41 42 43 44 45 46 47 48 49 50

000
ASUS45 KBOU 160207
RWRCO

WEATHER ROUNDUP FOR COLORADO
NATIONAL WEATHER SERVICE DENVER/BOULDER CO
700 PM MST SUN JAN 15 2017

NOTE: "FAIR" INDICATES FEW OR NO CLOUDS BELOW 12000 FEET WITH NO
SIGNIFICANT WEATHER AND/OR OBSTRUCTIONS TO VISIBILITY.

COZ001>005-013-030-031-160300-
...NORTHWEST COLORADO...

CITY           SKY/WX    TMP DP  RH WIND       PRES   REMARKS
CRAIG          CLOUDY    21  15  78 CALM      30.02R
HAYDEN         CLOUDY    21  18  86 W3        29.99S
MEEKER         CLOUDY    27  23  85 MISG      29.98S
MOUNT WERNER   NOT AVBL
STEAMBOAT SPGS CLOUDY    21  20  96 CALM      29.98S
WALDEN           N/A    N/A N/A N/A CALM      29.98R VSB 3/4
$$

COZ006>008-011-160300-
...WEST CENTRAL VALLEYS...

CITY           SKY/WX    TMP DP  RH WIND       PRES   REMARKS
GRAND JUNCTION CLOUDY    38  34  85 NW5       29.93S
MONTROSE       CLOUDY    36  34  92 NW3       29.95R
EAGLE          MOCLDY    28  25  86 CALM      29.95R
RIFLE          CLOUDY    32  26  78 W6        29.95S WCI  26
DELTA          CLOUDY    41  37  84 CALM      29.95R
NUCLA          CLOUDY    36  32  87 NW5       29.96S
$$

COZ017>023-064>068-160300-
...SOUTHWEST COLORADO...

CITY           SKY/WX    TMP DP  RH WIND       PRES   REMARKS
DURANGO        CLOUDY    38  34  85 SW7       29.83R
CORTEZ         CLOUDY    38  38 100 CALM      29.90R
PAGOSA SPRINGS MIX PCPN  37  37 100 SE3       29.87R
TELLURIDE      CLOUDY    31  31 100 W3        29.93S
WOLF CREEK PAS   N/A     23  23 100 CALM      29.97R
$$

COZ009-010-012-014-032>034-037-058>063-160300-
...CENTRAL COLORADO...

CITY           SKY/WX    TMP DP  RH WIND       PRES   REMARKS
ASPEN          CLOUDY    31  27  85 CALM      29.90S
BUENA VISTA    CLOUDY    31  28  90 CALM      29.91S
COPPER MTN     FLURRIES  30  23  74 CALM      29.96S
BERTHOUD PASS  NOT AVBL
COTTONWOOD PAS LGT SNOW  32  30  93 CALM      29.93R
GUNNISON       MOCLDY    23  19  85 CALM      29.91S
KREMMLING      CLOUDY    27  23  86 CALM      29.97R
LEADVILLE      CLOUDY    26  24  92 S3        29.90S
MONARCH PASS   CLOUDY    23  21  93 E13G18    30.02R WCI  11
SALIDA         CLOUDY    34  31  91 CALM      29.98S
SUNLIGHT       CLOUDY    23  23 100 NE6       29.98S FOG     WCI  16
WILKERSON PASS CLOUDY    23  21  93 NE9       29.97R FOG     WCI  13
$$

COZ069>075-160300-
...SAN LUIS VALLEY/SANGRE DE CRISTO MOUNTAINS...

CITY           SKY/WX    TMP DP  RH WIND       PRES   REMARKS
ALAMOSA        CLOUDY    32  32 100 CALM      29.85R
LA VETA PASS   CLOUDY    23  21  93 SW7       29.90S FOG     WCI  15
SAGUACHE       CLOUDY    32  30  93 CALM      29.86S
$$

COZ035-036-038>040-160300-
...NORTHERN COLORADO FRONT RANGE...

CITY           SKY/WX    TMP DP  RH WIND       PRES   REMARKS
DENVER INTL AP FLURRIES  32  25  75 NW6       29.96R WCI  26
DMNS CITY PARK   N/A     33  29  83 MISG      29.96S
AURORA         FLURRIES  31  31  99 NW3       29.95F
FRONT RANGE AP CLOUDY    32  28  86 W5        29.96S WCI  27
ERIE MUNI ARPT CLOUDY    33  29  86 CALM      29.97S
BOULDER MUN AP LGT SNOW  32  30  93 CALM      29.96F
CENTENNIAL     FLURRIES  31  28  89 CALM      29.95S
BROOMFIELD     LGT SNOW  32  28  86 CALM      29.96F
FORT COLLINS   MOCLDY    34  27  75 CALM      29.98S
LONGMONT       CLOUDY    35  29  80 CALM      29.99S
$$

COZ041-046-047-076>085-087-088-160300-
...PIKES PEAK/PALMER DIVIDE AND SOUTHERN FOOTHILLS...

CITY           SKY/WX    TMP DP  RH WIND       PRES   REMARKS
COLO. SPRINGS  SNOW      31  30  96 CALM      29.93S VSB 1/4
A. F. ACADEMY  LGT RAIN  32  29  86 N10       29.91S WCI  24
SCHRIEVER AFB  NOT AVBL
ELLICOTT       CLOUDY   N/A N/A N/A N8        29.92S
FALCON         CLOUDY    31  28  90 N6        29.93F WCI  25
FORT CARSON    SNOW      30  30 100 VRB3      29.94S VSB 1/4
LIMON          CLOUDY    29  27  92 N7        29.95R WCI  22
MONUMENT HILL  CLOUDY    27  27 100 NW7       29.95S FOG     WCI  19
TRINIDAD       CLOUDY    30  27  88 N3        29.93S FOG
$$

COZ042>045-048>051-090-091-160300-
...NORTHEAST COLORADO...

CITY           SKY/WX    TMP DP  RH WIND       PRES   REMARKS
GREELEY ARPT   CLOUDY    33  28  81 NW3       29.99R
AKRON          CLOUDY    28  26  92 CALM      29.96R FOG
BURLINGTON     CLOUDY    31  29  92 NE7       29.97S WCI  24
WRAY           NOT AVBL
STERLING       CLOUDY    30  30 100 N3        29.98R FOG
HOLYOKE        MIX PCPN  34  32  93 E6        29.99F WCI  29
FORT MORGAN    CLOUDY    30  27  90 CALM      29.98S
$$

COZ086-089-092>099-160300-
...SOUTHEAST COLORADO...

CITY           SKY/WX    TMP DP  RH WIND       PRES   REMARKS
PUEBLO         CLOUDY    33  31  92 CALM      29.94F FOG
LA JUNTA       CLOUDY    33  30  88 NW3       29.95F FOG
LAMAR          CLOUDY    32  30  92 N3        29.94F
SPRINGFIELD      N/A     30  29  96 N9        29.92R WCI  22
$$



USA.gov is the U.S. government's official web portal to all federal, state and local government web resources and services.